Tracking 29892 objects as of 21-Nov-2024
HD Live streaming from Space Station
objects crossing your sky now

CZ-6A DEB

Track CZ-6A DEB now!
10-day predictions


NORAD ID: 54916
Int'l Code: 2022-151RD
Perigee: 832.7 km
Apogee: 906.1 km
Inclination: 98.8 °
Period: 102.2 minutes
Semi major axis: 7240 km
RCS: Unknown
Launch date: November 11, 2022
Source: People's Republic of China (PRC)
Launch site: Taiyaun Space Center, China (TSC)

Note: This is SATELLITE DEBRIS
Your satellite tracking list
Your tracking list is empty




NASA's NSSDC Master Catalog

Two Line Element Set (TLE):
1 54916U 22151RD  24324.45495247  .00000694  00000-0  41962-3 0  9995
2 54916  98.8357 323.8512 0050698 166.0456 194.2128 14.09160805100548
Source of the keplerian elements: AFSPC